CW6538 Cattolica IT current weather conditions

sailwx.info

Wind from 149 at 0 knots gusting 4

Air temperature 22.2° C
Dewpoint 18.6° C

Last reported at 2014-Sep-21 07:54 UTC.
Time now 2014-Sep-21 08:08 UTC

Location: N 43°58' E 012°44'.
View on Google Maps.

See reports from other nearby stations

  
Tides and Currents Weather Stations Pressure Air Temp Water Temp Dewpoint Dewpoint Depression Visibility Wind Speed Wind Dir Waves Ship Positions
date/time (UTC)wind fromknots sea level pressurealtimeterstation pressurevisibilityair tempwater tempwave heightnotes
2014-Sep-21 07:54 149 0 gusting 4 22.2
2014-Sep-21 07:49 180 0 gusting 5 22.2
2014-Sep-21 07:44 113 3 gusting 5 22.2
2014-Sep-21 07:39 165 0 gusting 4 21.7
2014-Sep-21 07:34 189 21.1
2014-Sep-21 07:29 189 0 gusting 5 21.1
2014-Sep-21 07:14 141 1 gusting 4 20.0
2014-Sep-21 07:09 141 2 gusting 5 20.0
2014-Sep-21 07:04 126 0 gusting 5 20.0
2014-Sep-21 06:59 165 20.0
2014-Sep-21 06:54 165 19.4
2014-Sep-21 06:49 169 1 gusting 4 19.4
2014-Sep-21 06:44 169 1 gusting 3 19.4
2014-Sep-21 06:39 171 0 gusting 4 19.4
2014-Sep-21 06:34 165 1 gusting 4 19.4
2014-Sep-21 06:28 184 3 gusting 4 19.4
2014-Sep-21 06:24 184 0 gusting 1 18.9
2014-Sep-21 06:19 184 18.9
2014-Sep-21 06:14 184 18.9
2014-Sep-21 06:09 184 18.9
2014-Sep-21 06:04 184 18.9
2014-Sep-21 05:59 184 18.9
2014-Sep-21 05:54 184 18.9
2014-Sep-21 05:49 184 1 gusting 4 18.3
2014-Sep-21 05:44 184 1 gusting 2 18.3
2014-Sep-21 05:39 184 18.3
2014-Sep-21 05:34 184 18.3
2014-Sep-21 05:28 184 18.3
2014-Sep-21 05:23 184 18.3
2014-Sep-21 05:18 184 18.3
2014-Sep-21 05:14 184 18.9
2014-Sep-21 05:09 184 18.9
2014-Sep-21 05:04 184 18.9
2014-Sep-21 04:59 184 18.9
2014-Sep-21 04:54 184 18.9
2014-Sep-21 04:49 184 18.9
2014-Sep-21 04:44 184 0 gusting 3 18.9
2014-Sep-21 04:39 184 0 gusting 3 18.9
2014-Sep-21 04:34 184 18.9
2014-Sep-21 04:29 184 18.9
2014-Sep-21 04:24 184 1 gusting 4 18.9
2014-Sep-21 04:19 295 0 gusting 2 18.9
2014-Sep-21 04:14 297 18.9
2014-Sep-21 04:09 297 19.4
2014-Sep-21 04:04 298 19.4
2014-Sep-21 03:59 297 19.4
2014-Sep-21 03:54 298 19.4
2014-Sep-21 03:49 297 19.4
2014-Sep-21 03:44 302 19.4
2014-Sep-21 03:38 302 19.4
2014-Sep-21 03:34 302 19.4
2014-Sep-21 03:29 302 19.4
2014-Sep-21 03:24 302 19.4
2014-Sep-21 03:19 302 20.0
2014-Sep-21 03:14 302 20.0
2014-Sep-21 03:09 302 20.0
2014-Sep-21 03:04 302 20.0
2014-Sep-21 02:59 302 20.0
2014-Sep-21 02:54 302 20.0
2014-Sep-21 02:49 302 20.0
2014-Sep-21 02:44 302 20.0
2014-Sep-21 02:39 302 20.0
2014-Sep-21 02:33 302 20.0
2014-Sep-21 02:29 302 0 gusting 3 20.0
2014-Sep-21 02:24 302 0 gusting 4 20.0
2014-Sep-21 02:19 302 1 gusting 4 20.0
2014-Sep-21 02:14 269 20.0
2014-Sep-21 02:09 269 0 gusting 1 20.0
2014-Sep-21 02:04 152 20.0
2014-Sep-21 01:59 153 20.0
2014-Sep-21 01:54 152 20.0
2014-Sep-21 01:49 152 20.0
2014-Sep-21 01:44 153 20.0
2014-Sep-21 01:39 153 20.0
2014-Sep-21 01:33 153 20.0
2014-Sep-21 01:29 153 20.0
2014-Sep-21 01:24 153 20.0
2014-Sep-21 01:19 153 20.6
2014-Sep-21 01:14 153 20.6
2014-Sep-21 01:09 153 20.6
2014-Sep-21 01:04 153 20.6
2014-Sep-21 00:58 153 20.6
2014-Sep-21 00:53 153 20.6
2014-Sep-21 00:48 153 20.6
2014-Sep-21 00:44 152 20.6
2014-Sep-21 00:39 153 20.6
2014-Sep-21 00:34 152 20.6
2014-Sep-21 00:29 153 21.1
2014-Sep-21 00:24 153 21.1
2014-Sep-21 00:19 153 0 gusting 1 21.1
2014-Sep-21 00:13 025 21.1
2014-Sep-21 00:09 025 21.1
2014-Sep-21 00:04 025 21.1
2014-Sep-20 23:59 025 21.1
2014-Sep-20 23:54 025 21.1
2014-Sep-20 23:48 025 21.1
2014-Sep-20 23:43 025 21.7
2014-Sep-20 23:39 025 21.7
2014-Sep-20 23:34 025 21.7
2014-Sep-20 23:29 025 21.7
2014-Sep-20 23:24 025 21.7
2014-Sep-20 23:19 025 21.7
2014-Sep-20 23:14 025 21.7
2014-Sep-20 23:09 025 21.7
2014-Sep-20 23:04 025 21.7
2014-Sep-20 22:58 025 21.7
2014-Sep-20 22:54 025 21.7
2014-Sep-20 22:49 025 21.7
2014-Sep-20 22:44 025 21.7
2014-Sep-20 22:39 025 21.7
2014-Sep-20 22:34 025 21.7
2014-Sep-20 22:29 025 21.7
2014-Sep-20 22:24 025 21.7
2014-Sep-20 22:19 025 21.7
2014-Sep-20 22:14 025 21.7
2014-Sep-20 22:09 025 21.7
2014-Sep-20 22:05 025 21.7
2014-Sep-20 21:59 025 21.7
2014-Sep-20 21:54 025 21.7
2014-Sep-20 21:49 025 21.7
2014-Sep-20 21:44 025 21.7
2014-Sep-20 21:39 025 21.7
2014-Sep-20 21:34 025 21.7
2014-Sep-20 21:29 025 21.7
2014-Sep-20 21:24 025 21.7
2014-Sep-20 21:19 025 21.7
2014-Sep-20 21:14 025 21.7
2014-Sep-20 21:09 025 21.7
2014-Sep-20 21:04 025 21.7
2014-Sep-20 20:58 025 21.7
2014-Sep-20 20:54 024 21.7
2014-Sep-20 20:48 024 21.7
2014-Sep-20 20:44 024 21.7
2014-Sep-20 20:38 024 21.7
2014-Sep-20 20:34 024 21.7
2014-Sep-20 20:29 024 21.7
2014-Sep-20 20:24 024 22.2
2014-Sep-20 20:09 024 22.2
2014-Sep-20 20:04 024 22.2
2014-Sep-20 19:59 024 22.2
2014-Sep-20 19:54 024 22.2
2014-Sep-20 19:49 024 22.2
2014-Sep-20 19:44 024 22.2
2014-Sep-20 19:39 024 22.2
2014-Sep-20 19:34 024 22.2
2014-Sep-20 19:29 024 22.2
2014-Sep-20 19:24 024 0 gusting 3 22.2
2014-Sep-20 19:19 024 22.2
2014-Sep-20 19:14 024 22.2
2014-Sep-20 19:09 022 22.2
2014-Sep-20 19:04 005 1 gusting 4 22.2
2014-Sep-20 18:59 005 0 gusting 3 22.2
2014-Sep-20 18:54 005 22.2
2014-Sep-20 18:49 005 1 gusting 5 22.2
2014-Sep-20 18:43 005 2 gusting 5 22.2
2014-Sep-20 18:39 009 0 gusting 4 22.2
2014-Sep-20 18:34 009 2 gusting 7 22.2
2014-Sep-20 18:29 360 5 gusting 7 22.2
2014-Sep-20 18:24 351 1 gusting 6 22.2
2014-Sep-20 18:19 344 3 gusting 6 22.2
2014-Sep-20 18:14 360 1 gusting 5 22.2
2014-Sep-20 18:09 360 2 gusting 5 22.2
2014-Sep-20 18:04 360 2 gusting 6 22.2
2014-Sep-20 17:59 005 3 gusting 6 22.2
2014-Sep-20 17:54 360 1 gusting 6 22.2
2014-Sep-20 17:49 355 1 gusting 6 22.2
2014-Sep-20 17:44 009 3 gusting 5 22.2
2014-Sep-20 17:39 019 3 gusting 5 22.2
2014-Sep-20 17:34 019 0 gusting 2 22.2
2014-Sep-20 17:29 019 0 gusting 5 22.2
2014-Sep-20 17:23 019 2 gusting 6 22.2
2014-Sep-20 17:19 355 3 gusting 6 22.2
2014-Sep-20 17:14 011 4 gusting 6 22.8
2014-Sep-20 17:08 005 3 gusting 6 22.8
2014-Sep-20 17:04 022 3 gusting 6 22.8
2014-Sep-20 16:59 030 3 gusting 6 22.8
2014-Sep-20 16:54 044 3 gusting 6 22.8
2014-Sep-20 16:49 061 2 gusting 7 22.8
2014-Sep-20 16:44 056 5 gusting 7 22.8
2014-Sep-20 16:39 044 5 gusting 8 23.3
2014-Sep-20 16:34 070 5 gusting 7 23.3
2014-Sep-20 16:29 046 5 gusting 7 23.3
2014-Sep-20 16:24 042 3 gusting 6 23.3
2014-Sep-20 16:18 048 3 gusting 6 23.3
2014-Sep-20 16:14 056 4 gusting 7 23.3
2014-Sep-20 16:09 042 5 gusting 7 23.3
2014-Sep-20 16:04 012 5 gusting 8 23.3
2014-Sep-20 15:58 069 3 gusting 9 23.3
2014-Sep-20 15:54 034 6 gusting 9 23.3
2014-Sep-20 15:43 042 7 gusting 12 23.9
2014-Sep-20 15:39 055 4 gusting 6 23.9
2014-Sep-20 15:34 054 2 gusting 7 23.9
2014-Sep-20 15:29 037 5 gusting 7 24.4
2014-Sep-20 15:24 064 3 gusting 9 23.9
2014-Sep-20 15:19 040 6 gusting 9 23.3
2014-Sep-20 15:13 058 6 gusting 12 23.9
2014-Sep-20 15:09 051 8 gusting 12 23.9
2014-Sep-20 15:03 030 6 gusting 10 23.9
2014-Sep-20 14:59 034 6 gusting 9 23.9
2014-Sep-20 14:53 065 6 gusting 12 23.9
2014-Sep-20 14:49 058 7 gusting 13 23.9
2014-Sep-20 14:44 061 8 gusting 13 23.9
2014-Sep-20 14:39 041 7 gusting 12 24.4
2014-Sep-20 14:34 030 4 gusting 9 24.4
2014-Sep-20 14:29 067 6 gusting 9 24.4
2014-Sep-20 14:24 036 5 gusting 7 24.4
2014-Sep-20 14:18 079 5 gusting 9 24.4
2014-Sep-20 14:14 040 6 gusting 9 25.0
2014-Sep-20 14:09 047 4 gusting 8 25.0
2014-Sep-20 14:03 057 5 gusting 11 24.4
2014-Sep-20 13:59 069 8 gusting 11 25.0
2014-Sep-20 13:54 044 5 gusting 10 25.6
2014-Sep-20 13:49 130 3 gusting 9 25.6
2014-Sep-20 13:44 163 3 gusting 7 25.6
2014-Sep-20 13:39 092 3 gusting 9 25.6
2014-Sep-20 13:34 150 4 gusting 12 25.6
2014-Sep-20 13:29 101 6 gusting 12 25.6
2014-Sep-20 13:24 080 7 gusting 12 25.6
2014-Sep-20 13:19 108 6 gusting 11 25.6
2014-Sep-20 13:14 165 6 gusting 11 25.6
2014-Sep-20 13:09 096 6 gusting 11 25.6
2014-Sep-20 13:04 103 5 gusting 9 25.6
2014-Sep-20 12:59 097 6 gusting 13 25.6
2014-Sep-20 12:53 137 7 gusting 13 25.6
2014-Sep-20 12:49 118 5 gusting 9 25.6
2014-Sep-20 12:44 094 6 gusting 12 25.6
2014-Sep-20 12:39 109 6 gusting 13 25.6
2014-Sep-20 12:34 101 6 gusting 13 25.6
2014-Sep-20 12:29 094 6 gusting 11 25.6
2014-Sep-20 12:24 105 7 gusting 11 26.1
2014-Sep-20 12:19 101 6 gusting 10 26.1
2014-Sep-20 12:14 116 4 gusting 9 26.1
2014-Sep-20 12:09 092 6 gusting 9 25.6
2014-Sep-20 12:04 134 6 gusting 9 25.6
2014-Sep-20 11:59 111 5 gusting 9 26.1
2014-Sep-20 11:54 101 6 gusting 7 25.6
2014-Sep-20 11:49 117 4 gusting 7 25.6
2014-Sep-20 11:44 066 4 gusting 8 25.0
2014-Sep-20 11:39 057 4 gusting 8 25.0
2014-Sep-20 11:33 111 6 gusting 8 25.0
2014-Sep-20 11:29 076 4 gusting 6 25.0
2014-Sep-20 11:24 079 2 gusting 9 25.0
2014-Sep-20 11:19 089 6 gusting 10 25.0
2014-Sep-20 11:14 086 6 gusting 11 24.4
2014-Sep-20 11:09 109 6 gusting 11 24.4
2014-Sep-20 11:04 121 6 gusting 10 25.0
2014-Sep-20 10:59 080 3 gusting 12 24.4
2014-Sep-20 10:48 048 8 gusting 12 25.0
2014-Sep-20 10:44 043 6 gusting 10 25.0
2014-Sep-20 10:39 096 6 gusting 10 24.4
2014-Sep-20 10:33 067 6 gusting 8 24.4
2014-Sep-20 10:29 107 5 gusting 9 24.4
2014-Sep-20 10:23 074 6 gusting 10 24.4
2014-Sep-20 10:19 063 6 gusting 10 23.9
2014-Sep-20 10:14 077 5 gusting 8 24.4
2014-Sep-20 10:09 076 5 gusting 10 23.9
2014-Sep-20 10:04 094 6 gusting 10 23.9
2014-Sep-20 09:59 076 6 gusting 10 23.9
2014-Sep-20 09:54 021 6 gusting 10 23.3
2014-Sep-20 09:49 055 7 gusting 11 23.3
2014-Sep-20 09:44 059 7 gusting 11 23.9
2014-Sep-20 09:39 030 7 gusting 11 23.9
2014-Sep-20 09:33 044 5 gusting 8 23.9
2014-Sep-20 09:29 095 6 gusting 8 23.9
2014-Sep-20 09:24 107 4 gusting 6 23.3
2014-Sep-20 09:19 132 4 gusting 6 22.8
2014-Sep-20 09:14 159 2 gusting 6 22.8
2014-Sep-20 09:09 165 3 gusting 6 22.8
2014-Sep-20 09:04 171 2 gusting 6 22.2
2014-Sep-20 08:59 148 1 gusting 6 22.2
2014-Sep-20 08:54 159 2 gusting 6 22.2
2014-Sep-20 08:49 139 4 gusting 6 22.2
2014-Sep-20 08:44 161 3 gusting 6 22.2
2014-Sep-20 08:39 155 2 gusting 7 21.7
2014-Sep-20 08:34 124 4 gusting 7 21.1
2014-Sep-20 08:29 127 3 gusting 7 21.1
2014-Sep-20 08:24 140 3 gusting 6 21.1
2014-Sep-20 08:19 164 3 gusting 6 20.6
2014-Sep-20 08:13 148 20.6
2014-Sep-20 08:09 175 0 gusting 6 20.6
2014-Sep-20 08:04 132 1 gusting 6 20.6
2014-Sep-20 07:59 185 0 gusting 5 20.0
2014-Sep-20 07:54 146 1 gusting 5 20.0
2014-Sep-20 07:49 163 2 gusting 6 19.4
2014-Sep-20 07:44 167 3 gusting 6 19.4
2014-Sep-20 07:38 198 2 gusting 3 18.9
2014-Sep-20 07:34 198 0 gusting 4 18.9
2014-Sep-20 07:29 198 1 gusting 4 18.9
2014-Sep-20 07:24 198 18.9
2014-Sep-20 07:19 198 18.9
2014-Sep-20 07:14 198 2 gusting 5 18.9
2014-Sep-20 07:09 178 4 gusting 6 18.9
2014-Sep-20 07:04 206 4 gusting 6 18.3
2014-Sep-20 06:59 208 4 gusting 6 18.9
2014-Sep-20 06:54 202 18.3
2014-Sep-20 06:48 201 2 gusting 5 18.3
2014-Sep-20 06:43 207 1 gusting 7 18.3
2014-Sep-20 06:38 215 5 gusting 7 18.9
2014-Sep-20 06:34 215 2 gusting 6 18.9
2014-Sep-20 06:29 215 2 gusting 6 18.9
2014-Sep-20 06:24 215 0 gusting 3 18.9
2014-Sep-20 06:19 215 18.9
2014-Sep-20 06:14 215 0 gusting 5 18.9
2014-Sep-20 06:09 215 2 gusting 5 18.9
2014-Sep-20 05:59 288 0 gusting 4 18.9
2014-Sep-20 05:54 340 0 gusting 4 18.9
2014-Sep-20 05:49 263 0 gusting 3 18.9
2014-Sep-20 05:44 186 0 gusting 1 18.9
2014-Sep-20 05:39 186 18.9
2014-Sep-20 05:33 186 18.9
2014-Sep-20 05:28 186 0 gusting 3 18.9
2014-Sep-20 05:24 275 18.9
2014-Sep-20 05:19 275 0 gusting 4 18.9
2014-Sep-20 05:14 227 2 gusting 6 18.9
2014-Sep-20 05:09 227 2 gusting 8 18.9
2014-Sep-20 05:04 251 3 gusting 8 19.4
2014-Sep-20 04:59 300 5 gusting 6 18.9
2014-Sep-20 04:53 334 1 gusting 6 18.9
2014-Sep-20 04:49 275 4 gusting 9 18.9
2014-Sep-20 04:44 351 5 gusting 9 18.9
2014-Sep-20 04:39 263 3 gusting 12 18.9
2014-Sep-20 04:34 334 7 gusting 13 18.9
2014-Sep-20 04:29 339 8 gusting 18 19.4
2014-Sep-20 04:24 345 9 gusting 18 19.4
2014-Sep-20 04:19 317 6 gusting 9 20.0
2014-Sep-20 04:14 267 4 gusting 19 20.0
2014-Sep-20 04:09 298 7 gusting 19 20.0
2014-Sep-20 04:03 184 5 gusting 13 20.0
2014-Sep-20 03:59 299 6 gusting 13 20.0
2014-Sep-20 03:53 043 6 gusting 10 20.0
2014-Sep-20 03:49 005 6 gusting 8 20.0
2014-Sep-20 03:44 032 5 gusting 7 20.0
2014-Sep-20 03:39 349 2 gusting 7 20.0
2014-Sep-20 03:34 355 4 gusting 8 20.0
2014-Sep-20 03:29 327 4 gusting 8 20.0
2014-Sep-20 03:24 340 6 gusting 8 20.0
2014-Sep-20 03:19 360 5 gusting 7 20.0
2014-Sep-20 03:14 009 3 gusting 7 20.0
2014-Sep-20 03:09 005 4 gusting 6 20.0
2014-Sep-20 03:04 026 3 gusting 5 20.0
2014-Sep-20 02:58 036 20.0
2014-Sep-20 02:53 038 0 gusting 7 20.0
2014-Sep-20 02:49 030 4 gusting 7 20.0
2014-Sep-20 02:44 136 1 gusting 6 20.0
2014-Sep-20 02:39 146 4 gusting 6 20.0
2014-Sep-20 02:29 042 0 gusting 5 20.0
2014-Sep-20 02:24 127 0 gusting 6 20.0
2014-Sep-20 02:19 163 3 gusting 7 19.4
2014-Sep-20 02:14 133 5 gusting 6 19.4
2014-Sep-20 02:08 129 4 gusting 7 19.4
2014-Sep-20 02:04 154 4 gusting 7 19.4
2014-Sep-20 01:58 179 5 gusting 7 19.4
2014-Sep-20 01:54 169 4 gusting 7 19.4
2014-Sep-20 01:49 161 5 gusting 7 19.4
2014-Sep-20 01:43 194 4 gusting 6 19.4
2014-Sep-20 01:38 215 3 gusting 6 19.4
2014-Sep-20 01:34 273 0 gusting 6 19.4
2014-Sep-20 01:24 263 1 gusting 7 19.4
2014-Sep-20 01:19 286 1 gusting 7 19.4
2014-Sep-20 01:14 315 3 gusting 11 19.4
2014-Sep-20 01:09 300 4 gusting 11 20.0
2014-Sep-20 01:04 277 3 gusting 9 20.0
2014-Sep-20 00:59 290 4 gusting 9 20.0
2014-Sep-20 00:54 323 4 gusting 6 20.0
2014-Sep-20 00:49 323 2 gusting 6 20.0
2014-Sep-20 00:44 285 2 gusting 6 20.0
2014-Sep-20 00:38 298 2 gusting 5 20.0
2014-Sep-20 00:33 281 20.0
2014-Sep-20 00:29 281 20.0
2014-Sep-20 00:23 281 0 gusting 4 20.0
2014-Sep-20 00:19 167 20.0
2014-Sep-20 00:14 167 20.0
2014-Sep-20 00:09 167 20.0
2014-Sep-20 00:04 167 20.0
2014-Sep-19 23:59 167 20.0
2014-Sep-19 23:53 167 20.0
2014-Sep-19 23:48 167 20.0
2014-Sep-19 23:44 167 20.0
2014-Sep-19 23:39 167 20.0
2014-Sep-19 23:34 167 20.0
2014-Sep-19 23:29 167 20.0
2014-Sep-19 23:24 167 20.0
2014-Sep-19 23:18 167 20.0
2014-Sep-19 23:13 167 20.0
2014-Sep-19 23:08 167 20.0
2014-Sep-19 23:04 167 20.0
2014-Sep-19 22:59 167 20.0
2014-Sep-19 22:54 167 20.0
2014-Sep-19 22:48 167 20.0
2014-Sep-19 22:44 167 20.0
2014-Sep-19 22:39 167 20.0
2014-Sep-19 22:34 167 20.0
2014-Sep-19 22:28 167 20.0
2014-Sep-19 22:24 167 20.0
2014-Sep-19 22:19 167 0 gusting 4 20.0
2014-Sep-19 22:13 167 0 gusting 3 20.0
2014-Sep-19 22:09 167 0 gusting 2 20.0
2014-Sep-19 22:05 167 20.0
2014-Sep-19 21:59 167 0 gusting 3 20.0
2014-Sep-19 21:53 167 1 gusting 3 20.0
2014-Sep-19 21:49 167 20.0
2014-Sep-19 21:43 167 20.0
2014-Sep-19 21:34 167 1 gusting 3 20.6
2014-Sep-19 21:29 167 0 gusting 3 20.6
2014-Sep-19 21:24 167 20.6
2014-Sep-19 21:19 167 2 gusting 4 20.6
2014-Sep-19 21:14 197 1 gusting 4 20.6
2014-Sep-19 21:09 197 3 gusting 4 20.6
2014-Sep-19 21:04 204 20.6
2014-Sep-19 20:59 204 20.6
2014-Sep-19 20:54 204 20.6
2014-Sep-19 20:49 204 20.6
2014-Sep-19 20:44 204 1 gusting 2 20.6
2014-Sep-19 20:39 204 20.6
2014-Sep-19 20:34 204 20.6
2014-Sep-19 20:28 204 20.6
2014-Sep-19 20:24 204 20.6
2014-Sep-19 20:19 204 1 gusting 4 20.6
2014-Sep-19 20:13 204 21.1
2014-Sep-19 20:08 204 1 gusting 3 21.1
2014-Sep-19 20:04 204 0 gusting 3 21.1
2014-Sep-19 19:59 204 0 gusting 3 21.1
2014-Sep-19 19:54 204 21.1
2014-Sep-19 19:49 204 21.1
2014-Sep-19 19:44 204 1 gusting 5 21.1
2014-Sep-19 19:38 227 2 gusting 5 21.1
2014-Sep-19 19:34 236 21.1
2014-Sep-19 19:28 192 21.1
2014-Sep-19 19:24 192 1 gusting 5 21.1
2014-Sep-19 19:19 192 2 gusting 5 21.7
2014-Sep-19 19:14 205 2 gusting 5 21.7
2014-Sep-19 19:09 300 21.7
2014-Sep-19 18:59 300 21.7
2014-Sep-19 18:54 300 21.7
2014-Sep-19 18:49 300 21.7
2014-Sep-19 18:44 300 0 gusting 4 21.7
2014-Sep-19 18:39 300 0 gusting 4 21.7
2014-Sep-19 18:34 300 1 gusting 4 21.7
2014-Sep-19 18:29 304 1 gusting 6 21.7
2014-Sep-19 18:24 273 0 gusting 6 22.2
2014-Sep-19 18:18 240 3 gusting 6 22.2
2014-Sep-19 18:14 281 4 gusting 6 22.2
2014-Sep-19 18:08 273 1 gusting 5 22.2
2014-Sep-19 18:04 273 2 gusting 5 22.2
2014-Sep-19 17:59 053 22.8
2014-Sep-19 17:53 053 22.8
2014-Sep-19 17:49 053 22.8
2014-Sep-19 17:44 053 22.8
2014-Sep-19 17:39 053 22.8
2014-Sep-19 17:34 053 0 gusting 3 22.8
2014-Sep-19 17:29 053 0 gusting 2 22.8
2014-Sep-19 17:24 053 22.8
2014-Sep-19 17:19 053 22.8
2014-Sep-19 17:14 077 0 gusting 6 22.8
2014-Sep-19 17:08 048 4 gusting 6 23.3
2014-Sep-19 17:04 046 4 gusting 6 23.3
2014-Sep-19 16:59 044 4 gusting 6 23.3
2014-Sep-19 16:54 055 0 gusting 4 23.3
2014-Sep-19 16:49 055 2 gusting 4 23.3
2014-Sep-19 16:44 055 23.3
2014-Sep-19 16:39 175 23.3
2014-Sep-19 16:34 175 23.3
2014-Sep-19 16:28 175 23.3
2014-Sep-19 16:24 175 23.3
2014-Sep-19 16:19 175 1 gusting 4 23.3
2014-Sep-19 16:14 130 23.3
2014-Sep-19 16:09 168 3 gusting 7 23.3
2014-Sep-19 16:04 161 4 gusting 10 23.3
2014-Sep-19 15:59 144 5 gusting 10 23.3
2014-Sep-19 15:54 140 4 gusting 9 23.3
2014-Sep-19 15:49 129 6 gusting 11 23.3
2014-Sep-19 15:44 184 6 gusting 13 23.3
2014-Sep-19 15:39 115 4 gusting 13 23.3
2014-Sep-19 15:33 152 6 gusting 12 23.3
2014-Sep-19 15:29 134 5 gusting 12 23.3
2014-Sep-19 15:24 135 6 gusting 13 22.8
2014-Sep-19 15:19 145 6 gusting 13 22.8
2014-Sep-19 15:14 170 7 gusting 12 22.8
2014-Sep-19 15:09 160 6 gusting 12 22.8
2014-Sep-19 15:04 193 6 gusting 13 22.8
2014-Sep-19 14:59 117 6 gusting 13 22.8
2014-Sep-19 14:53 169 7 gusting 13 22.8
2014-Sep-19 14:49 128 7 gusting 13 22.8
2014-Sep-19 14:44 175 3 gusting 10 22.8
2014-Sep-19 14:39 169 6 gusting 13 22.2
2014-Sep-19 14:34 142 7 gusting 11 22.2
2014-Sep-19 14:29 163 4 gusting 10 22.2
2014-Sep-19 14:24 167 6 gusting 9 22.2
2014-Sep-19 14:19 143 6 gusting 9 21.7
2014-Sep-19 14:14 148 6 gusting 9 21.7
2014-Sep-19 14:09 190 3 gusting 6 21.1
2014-Sep-19 14:04 166 3 gusting 6 21.1
2014-Sep-19 13:59 178 2 gusting 4 21.1
2014-Sep-19 13:54 194 1 gusting 4 21.1
2014-Sep-19 13:49 184 1 gusting 4 21.1
2014-Sep-19 13:44 161 1 gusting 4 21.1
2014-Sep-19 13:39 100 21.1
2014-Sep-19 13:34 071 0 gusting 4 21.1
2014-Sep-19 13:29 061 2 gusting 4 21.1
2014-Sep-19 13:24 061 1 gusting 5 21.1
2014-Sep-19 13:19 023 0 gusting 6 21.1
2014-Sep-19 13:13 028 3 gusting 6 21.1
2014-Sep-19 13:09 360 2 gusting 6 21.1
2014-Sep-19 13:04 321 1 gusting 7 21.1
2014-Sep-19 12:59 016 4 gusting 7 21.1
2014-Sep-19 12:54 331 1 gusting 6 21.7
2014-Sep-19 12:49 011 4 gusting 6 21.7
2014-Sep-19 12:44 015 0 gusting 5 21.7
2014-Sep-19 12:39 016 2 gusting 5 21.7
2014-Sep-19 12:34 042 3 gusting 5 21.7
2014-Sep-19 12:29 043 2 gusting 5 21.7
2014-Sep-19 12:24 044 3 gusting 5 21.7
2014-Sep-19 12:19 034 3 gusting 6 21.7
2014-Sep-19 12:14 032 3 gusting 6 21.7
2014-Sep-19 12:09 015 2 gusting 6 21.7
2014-Sep-19 11:59 053 4 gusting 8 21.7
2014-Sep-19 11:54 041 6 gusting 8 21.7
2014-Sep-19 11:48 026 4 gusting 9 21.7
2014-Sep-19 11:44 057 6 gusting 9 21.7
2014-Sep-19 11:38 014 6 gusting 9 21.7
2014-Sep-19 11:34 030 6 gusting 9 21.7
2014-Sep-19 11:29 037 6 gusting 9 21.7
2014-Sep-19 11:24 028 4 gusting 8 22.2
2014-Sep-19 11:18 040 5 gusting 8 21.7
2014-Sep-19 11:14 034 6 gusting 7 21.7
2014-Sep-19 11:08 005 5 gusting 7 21.7
2014-Sep-19 11:04 024 4 gusting 6 21.7
2014-Sep-19 10:59 046 3 gusting 6 21.7
2014-Sep-19 10:54 020 5 gusting 6 21.7
2014-Sep-19 10:49 350 5 gusting 6 21.7
2014-Sep-19 10:44 019 5 gusting 6 21.7
2014-Sep-19 10:39 028 4 gusting 6 21.7
2014-Sep-19 10:34 031 3 gusting 6 21.7
2014-Sep-19 10:29 038 4 gusting 6 21.7
2014-Sep-19 10:24 040 4 gusting 6 21.7
2014-Sep-19 10:18 059 4 gusting 6 21.7
2014-Sep-19 10:14 031 5 gusting 6 21.7
2014-Sep-19 10:08 059 2 gusting 6 21.7
2014-Sep-19 10:04 011 4 gusting 6 21.7
2014-Sep-19 09:58 010 4 gusting 6 22.2
2014-Sep-19 09:54 056 0 gusting 6 22.2
2014-Sep-19 09:49 039 3 gusting 6 22.2
2014-Sep-19 09:44 355 3 gusting 6 22.2
2014-Sep-19 09:38 011 3 gusting 6 22.2
2014-Sep-19 09:34 025 4 gusting 6 22.2
2014-Sep-19 09:29 005 4 gusting 6 22.2
2014-Sep-19 09:24 033 3 gusting 5 22.2
2014-Sep-19 09:18 005 3 gusting 5 22.2
2014-Sep-19 09:14 030 2 gusting 3 22.2
2014-Sep-19 09:09 029 0 gusting 2 21.7
2014-Sep-19 09:03 029 21.7
2014-Sep-19 08:59 030 21.7
2014-Sep-19 08:54 030 0 gusting 4 21.7
2014-Sep-19 08:49 030 0 gusting 4 21.7
2014-Sep-19 08:44 280 21.1
2014-Sep-19 08:39 280 21.1
2014-Sep-19 08:34 280 21.1
2014-Sep-19 08:29 280 20.6
2014-Sep-19 08:23 205 20.6
2014-Sep-19 08:19 205 20.6
2014-Sep-19 08:14 205 20.0
2014-Sep-19 08:09 205 20.0
2014-Sep-19 08:04 205 20.0